Location: Wallasey
(53.4265°N, 3.0662°W)
Time: 03:55:03
(UTC+01:00)

NOAA 18 - Pass Details

Date: 18 September 2019
Orbit: 841 x 861 km, 99.1° (Epoch: 15 October)

Event Time Altitude Azimuth Distance (km) Brightness Sun altitude
Exits shadow 20:18:11 - 133° (SE) 2,699 7.3 -9.1°
Reaches altitude 10° 20:18:45 10° 132° (SE) 2,489 7.1 -9.2°
Maximum altitude 20:23:56 43° 62° (ENE) 1,197 5.7 -10.0°
Drops below altitude 10° 20:29:09 10° 353° (N) 2,512 8.0 -10.7°
Sets 20:31:38 0° 347° (NNW) 3,454 8.8 -11.1°
